Wind_Speed
24 23 22 22 22 22 22 21 21 21 22 22 21 22 22 23 21 21 21 22 22 22 23 23 24 24 23 23 24 25 26 26 26 26 25 25 24 24 23 22 21 20 19 18 17 16 16 15 15 15 14 14 14 14 15 15 16 16 17 17 17 17 17 17 17 17 17 17 17
25 24 23 23 22 22 21 21 20 21 21 22 22 23 24 24 22 21 21 22 22 22 23 23 23 23 23 23 23 24 25 25 25 25 25 24 24 23 22 21 20 19 18 17 17 16 16 15 15 14 14 14 14 14 14 14 15 16 16 17 17 18 18 18 18 18 18 18 17
25 25 24 24 23 21 20 20 20 21 21 21 21 22 24 25 23 22 22 22 21 21 21 21 21 22 22 22 22 22 23 24 25 25 24 24 23 23 22 21 20 18 18 17 16 16 15 15 14 14 14 14 13 13 13 13 14 14 15 16 17 17 18 19 19 19 19 19 18
26 25 25 25 24 22 20 20 21 22 22 22 21 22 23 25 24 23 22 22 21 20 20 20 20 21 21 21 21 21 22 23 24 24 24 24 23 22 21 20 19 18 18 17 17 16 15 15 14 14 14 14 13 13 13 13 13 13 14 15 16 17 17 18 18 18 19 19 19
25 27 27 26 24 22 21 21 22 23 23 23 22 22 23 24 23 22 22 21 20 19 19 19 19 20 20 20 20 20 21 21 22 23 23 23 23 22 21 20 19 19 18 17 17 16 15 15 14 14 14 14 14 13 13 13 13 13 14 14 15 16 16 17 17 18 18 19 19
22 25 27 26 25 23 22 22 23 24 24 23 23 22 22 23 22 22 22 21 20 19 18 18 18 19 19 19 19 20 20 21 21 22 22 22 22 21 21 20 19 19 18 18 17 16 16 15 15 15 15 15 15 14 14 14 14 14 14 15 15 15 16 17 17 17 18 19 19
20 22 24 25 25 24 22 22 23 24 24 24 23 23 22 21 21 21 21 21 20 19 18 18 18 18 18 19 19 20 20 20 21 21 21 21 21 21 20 20 19 19 18 18 17 17 16 16 16 16 16 16 16 16 16 16 16 16 16 16 16 16 17 18 18 18 19 19 20
18 21 23 24 25 25 24 23 23 24 24 24 24 24 23 21 20 20 20 20 20 19 19 18 17 17 18 18 19 20 20 20 20 20 20 20 20 20 19 19 19 18 18 17 17 17 17 16 16 16 17 17 17 17 17 18 18 18 18 18 18 18 19 19 19 19 20 20 20
16 19 22 24 25 25 25 24 24 25 25 24 24 24 24 21 19 19 20 20 20 19 19 18 18 17 17 18 19 19 19 20 20 20 19 19 19 19 19 18 18 18 17 17 17 17 17 17 17 17 17 17 18 18 18 18 18 19 19 20 20 20 20 20 20 20 20 20 20
16 18 21 23 24 25 25 25 24 24 24 24 24 24 23 20 19 19 19 19 19 19 19 18 18 17 17 17 18 18 18 18 18 19 18 18 18 18 18 17 17 17 17 16 16 17 17 17 17 17 17 18 18 18 18 18 18 19 20 20 20 20 20 20 20 20 20 20 21
17 17 19 22 24 25 25 24 23 22 22 23 25 24 22 19 18 18 18 18 19 19 19 18 18 17 17 16 16 16 16 16 17 17 17 17 17 17 17 16 16 16 16 16 16 16 17 17 17 17 17 17 17 17 18 18 18 19 19 19 19 20 20 20 20 20 20 20 20
18 17 18 21 24 25 24 23 23 22 21 22 25 24 21 18 18 18 18 18 18 18 18 18 17 16 15 15 15 15 15 15 15 16 16 16 16 15 15 15 16 16 16 16 16 16 17 17 18 18 18 18 18 18 18 18 18 19 19 19 19 19 20 20 20 19 19 19 20
18 18 19 22 24 24 23 22 22 21 21 22 23 23 20 18 18 18 18 18 18 17 17 16 16 15 14 14 14 14 14 14 14 14 14 14 14 14 14 15 15 15 16 16 16 17 17 18 18 18 18 18 18 18 18 18 18 19 19 19 20 20 20 19 18 17 17 18 19
19 20 21 22 23 23 23 22 21 21 21 21 22 21 19 17 17 17 17 17 17 16 16 16 15 15 14 13 13 13 13 12 12 13 13 13 13 13 13 13 14 14 15 15 16 17 17 18 18 18 18 18 18 18 18 19 19 19 19 19 19 19 18 17 16 16 17 18 19
20 21 22 23 23 23 23 23 21 21 21 21 20 19 18 16 16 17 17 16 16 15 15 15 15 14 13 12 12 11 11 10 11 11 11 12 12 12 12 12 13 13 13 14 15 16 17 18 18 18 18 18 18 18 18 19 19 19 18 18 17 16 15 14 15 16 17 17 18
20 21 22 23 23 23 22 22 22 22 22 22 20 18 16 16 16 16 16 15 15 15 15 15 15 14 13 12 11 10 9 9 9 9 9 10 10 10 10 11 11 12 12 12 13 14 15 16 16 17 17 18 18 18 18 18 17 17 16 15 13 13 13 14 15 16 16 16 16
20 21 22 23 23 23 22 22 23 23 24 22 19 17 16 16 16 16 15 15 15 15 15 15 14 13 12 10 9 8 8 8 8 8 8 8 8 9 9 10 11 11 11 12 12 12 13 14 14 15 16 16 16 16 16 16 15 14 14 14 14 14 15 15 16 16 16 17 17
21 21 22 23 24 23 23 23 24 25 24 21 18 16 16 16 16 16 15 15 15 15 14 13 12 11 10 10 9 9 8 8 8 8 9 9 9 10 10 10 11 12 12 12 12 12 12 13 13 14 14 14 14 14 14 14 15 15 15 16 17 17 17 17 17 17 17 18 17
22 23 23 24 25 25 25 25 25 23 21 19 17 17 16 16 16 16 16 16 15 14 12 11 10 10 10 10 10 10 9 9 9 10 10 11 11 11 11 11 11 12 12 12 12 12 12 12 12 12 12 12 12 12 13 15 16 16 17 17 17 17 16 16 16 16 16 16 15
24 25 25 26 26 26 25 24 22 20 18 17 17 16 16 15 15 16 16 16 14 12 11 10 10 10 10 10 10 10 10 10 10 10 11 11 11 11 11 11 11 11 11 12 12 12 12 12 11 11 10 11 12 13 14 15 15 15 15 15 14 14 14 14 14 13 13 13 12
26 26 26 25 24 23 22 19 17 16 16 16 16 16 15 15 15 15 15 14 12 11 10 10 11 11 11 11 10 10 10 10 10 10 10 10 10 10 10 10 10 10 10 11 11 11 11 11 10 10 10 11 13 14 14 14 14 13 13 12 12 12 12 12 12 11 11 10 10
26 25 24 22 21 19 17 15 14 14 14 15 15 15 15 15 15 14 13 12 11 11 11 11 11 11 11 11 10 10 10 10 10 9 9 8 8 8 8 8 8 8 8 9 9 9 9 9 9 10 11 12 13 14 13 13 12 12 11 11 10 10 10 10 9 9 9 8 7
23 22 20 19 17 15 14 13 13 13 14 14 14 14 14 14 13 12 12 11 11 11 11 10 10 9 9 9 10 10 10 10 9 8 8 7 7 7 7 6 6 6 6 7 7 7 7 7 8 9 11 12 13 12 12 11 11 10 9 9 8 8 7 7 7 7 6 6 5
19 18 16 15 14 13 12 12 13 13 14 14 14 14 13 12 12 11 12 12 11 11 10 10 10 9 9 8 9 9 9 8 8 7 7 6 6 5 5 5 4 4 4 5 5 5 5 6 7 9 10 11 11 10 9 9 9 9 9 9 9 8 7 7 6 6 6 5 5
16 15 14 13 12 12 12 13 13 14 14 14 15 14 14 13 12 11 11 11 11 10 9 9 10 10 10 9 9 8 8 7 7 7 7 6 6 5 5 4 4 4 5 5 5 5 6 6 7 8 8 8 8 7 7 7 8 9 10 11 10 10 9 9 8 7 6 5 5
15 14 13 13 13 13 13 14 14 15 15 15 15 14 13 13 12 11 10 10 10 9 9 8 9 11 11 10 10 9 9 8 8 7 7 8 7 7 7 7 7 7 7 7 7 7 8 8 8 7 7 8 8 8 9 9 10 11 11 12 12 11 11 10 9 7 6 5 5
16 15 15 14 14 14 14 15 15 15 15 15 14 13 13 12 11 10 10 10 10 10 9 9 10 11 12 12 11 11 11 10 10 10 9 10 10 10 10 10 10 10 9 9 9 9 9 9 9 9 9 10 10 11 12 13 13 13 13 13 12 11 10 9 8 7 6 6 5
17 16 16 15 15 15 15 15 15 15 15 14 14 13 12 12 11 11 11 12 12 12 12 12 12 12 12 13 14 13 13 13 13 12 12 12 12 13 13 13 12 11 11 10 10 10 10 10 10 11 11 13 13 14 14 15 15 15 13 11 10 9 8 8 7 6 6 5 5
18 18 17 17 17 17 16 16 16 16 15 15 14 14 14 13 13 14 14 15 15 15 15 15 14 14 14 15 16 16 16 15 15 14 14 15 15 15 15 14 13 12 11 11 11 11 11 11 11 12 13 14 14 15 15 15 14 12 11 9 8 8 8 8 7 6 5 5 5
19 19 18 18 17 17 16 16 16 16 16 16 16 16 16 16 16 17 17 17 17 17 17 17 16 16 17 17 17 17 17 17 16 16 16 17 16 16 15 15 14 13 12 12 12 11 11 11 12 12 12 13 14 14 13 12 10 10 10 9 9 8 8 7 7 6 6 5 4
20 19 19 18 17 15 15 15 16 17 17 17 17 17 18 18 19 19 18 18 18 18 18 18 18 19 19 19 19 19 19 18 18 18 18 18 17 17 16 15 14 13 11 11 11 11 10 10 9 9 9 10 10 10 10 9 9 10 10 10 10 9 8 8 8 7 6 5 4
19 19 18 17 16 15 15 16 17 18 18 18 18 18 19 19 19 19 19 19 19 19 19 19 19 20 20 20 20 20 20 20 19 19 18 18 18 17 16 15 14 12 11 10 10 9 9 9 8 7 7 7 8 9 10 10 11 11 11 10 9 9 8 8 8 7 7 6 5
20 19 19 18 18 17 17 18 19 20 20 20 20 20 20 20 20 20 20 20 20 20 20 20 20 21 21 21 21 21 21 20 19 18 18 17 17 16 16 15 14 12 10 9 9 9 9 9 9 9 9 9 10 11 12 12 13 12 11 10 9 8 8 8 8 8 7 7 6
21 22 21 21 20 20 20 20 21 22 22 22 22 22 22 22 21 21 21 21 21 21 21 21 22 22 22 22 22 21 20 19 18 17 16 15 15 15 16 16 14 12 11 10 11 11 11 11 11 10 10 11 12 13 13 12 11 10 9 8 8 8 8 9 9 8 8 7 7
21 22 22 21 21 21 21 22 23 23 24 24 23 23 23 22 22 22 22 22 23 23 23 23 23 23 23 22 21 21 20 19 18 17 16 15 15 16 16 16 14 13 12 13 13 13 13 12 10 9 9 9 10 10 10 9 9 8 8 7 7 8 8 9 9 8 8 8 8
20 20 20 20 21 21 22 22 23 23 24 23 23 23 23 23 23 23 23 23 23 23 23 22 22 22 22 21 21 20 20 20 19 18 16 16 16 17 17 17 16 15 14 14 14 13 11 10 8 6 6 6 7 8 8 8 9 9 8 7 7 8 8 9 9 9 9 9 9
18 19 19 20 20 20 21 21 21 22 22 22 22 22 23 22 22 21 21 21 22 22 22 22 22 22 22 22 22 21 20 19 18 18 18 17 18 18 19 18 17 15 14 13 11 10 9 8 6 5 5 6 7 8 9 9 10 10 9 8 8 8 9 9 9 9 9 10 9
17 18 19 19 19 20 20 20 21 21 21 21 22 22 22 21 21 20 20 20 21 22 23 22 23 23 23 23 23 22 20 18 18 19 19 19 19 19 19 18 17 14 12 10 9 8 7 7 6 6 5 6 8 9 9 10 10 10 10 9 9 9 9 8 8 8 10 10 10
17 18 19 20 20 20 20 21 21 21 21 22 22 21 21 21 21 21 21 21 22 23 24 24 24 23 23 23 23 22 21 20 19 19 20 20 19 18 18 17 15 13 10 8 7 7 7 8 8 7 7 7 8 8 9 9 10 10 10 9 9 9 9 8 8 8 9 10 11
18 19 19 20 21 21 21 21 21 21 22 22 22 22 22 22 22 22 23 23 23 24 24 24 24 24 24 23 23 23 22 21 20 19 19 19 18 16 16 15 14 12 10 8 8 9 9 10 10 9 9 8 7 7 8 8 9 10 10 10 9 10 9 9 8 8 9 10 11
19 19 20 20 21 22 22 22 22 22 22 23 23 22 22 23 23 24 24 24 24 24 25 25 24 24 24 23 23 23 22 22 20 19 18 17 17 16 15 15 15 13 12 11 11 11 10 10 10 9 8 7 7 7 6 6 8 10 11 10 10 10 10 10 9 9 10 10 11
Wind_Direction
194 193 193 194 194 195 195 195 193 190 186 182 179 178 178 179 181 185 188 188 188 186 183 181 182 185 189 194 198 200 201 204 207 208 210 211 213 216 217 219 220 222 225 229 234 237 239 240 241 241 241 241 241 241 241 240 240 240 241 242 244 246 248 249 250 251 253 256 259
195 194 194 194 193 192 191 191 190 188 185 182 180 180 181 181 183 186 189 190 189 186 182 181 182 185 189 194 198 201 203 205 207 209 210 211 213 215 216 217 219 222 226 231 236 240 242 242 241 240 241 242 243 242 242 243 243 242 243 244 246 247 249 251 252 254 256 259 261
194 195 194 192 189 187 186 186 187 186 184 182 181 181 182 183 185 188 190 190 190 186 182 180 183 186 190 194 198 201 204 207 209 210 211 212 213 214 215 217 219 222 227 233 238 241 243 243 242 241 241 242 244 245 245 246 246 246 245 247 248 249 250 252 254 256 258 261 263
192 193 192 189 187 185 185 185 185 185 184 181 180 181 182 184 187 190 191 191 189 186 183 182 184 188 191 194 198 201 204 208 210 211 211 212 213 214 215 216 219 223 227 232 237 240 242 242 241 240 241 243 245 247 248 248 248 248 248 249 250 251 252 254 256 258 260 262 265
188 190 190 189 188 187 186 186 186 186 185 183 181 181 183 186 189 191 191 191 189 187 186 186 187 190 192 195 198 201 204 207 209 211 212 212 213 214 215 217 220 223 227 231 234 237 239 239 240 239 240 242 244 246 247 248 248 249 249 250 251 252 254 255 257 259 261 264 266
187 187 188 189 189 189 188 187 187 187 187 186 185 185 186 187 188 189 190 190 189 189 190 190 190 192 193 196 199 202 204 206 208 210 212 212 213 214 216 218 221 224 227 230 233 235 237 238 238 239 239 241 242 243 245 246 247 248 250 251 251 252 254 256 258 260 262 264 267
188 185 185 186 188 188 187 185 186 187 188 188 188 188 187 186 186 188 189 190 189 190 191 192 194 194 195 197 199 202 204 206 208 209 211 212 213 215 217 220 223 225 228 230 232 234 235 237 238 238 240 240 242 243 244 245 247 248 250 251 252 253 255 257 259 261 263 266 268
187 182 183 185 187 186 185 183 184 185 187 189 189 188 185 184 186 189 189 189 189 190 193 195 197 198 198 199 201 203 205 206 207 209 211 212 214 216 218 221 223 226 228 231 232 234 235 236 238 239 241 242 243 244 245 246 248 250 251 253 254 255 257 259 261 263 265 268 270
188 183 182 185 186 186 185 184 184 185 186 188 188 186 183 183 188 190 189 188 190 193 196 197 199 200 201 201 203 205 207 208 208 209 211 213 214 216 218 221 223 226 229 231 233 234 235 237 239 241 242 244 246 247 248 249 251 252 254 255 256 258 260 262 263 265 268 270 272
192 187 183 182 184 185 186 185 184 184 185 186 185 182 181 185 189 190 190 190 192 194 196 198 199 199 199 202 204 207 209 211 211 212 212 214 215 216 218 220 223 225 228 231 233 235 236 238 239 242 244 246 248 250 251 252 254 255 256 258 260 261 262 264 266 268 269 270 272
194 190 184 182 182 184 185 182 181 182 183 183 181 181 183 187 190 191 192 193 193 194 197 199 199 198 199 202 206 209 211 213 213 214 214 215 216 217 219 221 224 226 228 230 232 234 236 238 240 243 245 247 249 251 253 254 256 257 259 261 262 264 265 267 268 269 270 271 273
196 194 189 184 183 183 183 181 180 181 182 181 180 182 185 189 191 192 194 195 194 196 198 201 201 201 203 205 208 210 211 212 213 214 215 216 217 219 220 223 225 227 229 231 233 235 237 239 241 244 246 248 250 251 253 255 257 258 260 262 263 264 265 268 270 271 272 272 273
199 196 191 185 183 183 183 182 182 183 183 183 182 183 186 191 193 195 197 197 198 199 201 203 206 208 209 209 208 208 208 209 211 212 214 216 217 219 221 223 226 229 231 233 234 236 238 240 243 245 247 249 250 252 254 256 258 259 260 261 262 264 266 269 271 271 271 270 270
199 196 190 185 182 181 182 183 185 186 186 185 183 183 186 191 195 198 201 202 202 204 205 208 211 213 213 211 207 204 204 206 207 210 213 216 217 220 223 225 227 230 232 234 236 238 240 242 244 246 248 250 252 253 255 256 257 259 260 261 262 265 267 269 269 268 267 266 267
198 195 189 183 180 179 180 183 186 187 186 183 180 181 185 191 196 200 203 205 207 209 210 210 209 210 211 209 205 203 202 203 205 208 212 216 219 221 223 225 227 229 232 234 237 239 241 244 245 248 250 252 254 255 255 256 257 259 261 262 264 265 266 265 265 266 265 265 267
199 194 187 180 177 176 177 180 183 183 181 177 177 180 186 192 196 200 204 206 209 210 210 207 205 204 204 205 204 202 201 201 202 205 209 213 215 217 219 220 222 224 227 230 233 236 240 244 246 248 250 252 254 255 255 256 257 258 259 259 258 258 258 260 263 265 267 269 271
196 188 181 176 174 173 173 174 176 176 175 175 178 183 189 192 196 200 204 206 206 205 204 202 199 196 195 195 194 194 194 195 195 196 196 196 197 199 204 209 214 219 223 227 229 232 236 240 243 246 249 251 253 254 254 255 254 253 252 250 250 251 254 258 263 267 271 273 275
183 176 172 171 171 170 170 170 171 171 173 176 181 187 191 194 196 199 202 203 202 199 197 194 191 187 183 179 177 176 178 181 182 181 180 182 185 191 199 209 215 220 225 228 231 234 237 239 241 243 246 248 250 251 251 250 249 248 248 250 251 254 257 262 267 271 274 276 278
166 163 164 165 165 165 166 167 168 170 173 179 184 188 192 195 197 198 199 199 197 193 189 185 182 177 173 170 168 169 171 174 178 182 187 191 196 204 213 221 226 229 231 232 235 238 241 243 244 244 244 244 244 245 245 247 248 250 252 255 257 260 264 269 272 275 277 277 277
156 157 158 159 159 160 162 163 166 170 176 182 187 190 193 196 197 196 195 194 191 186 180 174 170 170 170 172 173 175 179 185 192 198 204 208 214 220 226 232 235 236 237 237 238 240 243 245 245 244 241 240 241 243 246 249 252 256 259 262 265 267 269 270 270 270 270 269 268
152 155 156 157 157 159 162 165 170 175 181 185 189 192 195 195 195 194 191 187 182 177 173 169 168 170 173 177 180 184 190 197 204 211 216 221 226 230 233 234 235 235 235 236 236 237 237 237 237 236 236 239 244 248 252 254 258 262 264 266 266 264 262 261 259 257 257 258 260
151 155 158 160 162 165 169 172 177 181 185 188 191 193 193 192 191 189 185 178 173 172 173 174 176 177 178 180 182 187 194 200 204 208 212 217 223 226 227 226 225 224 225 228 228 228 227 226 226 229 235 241 248 252 256 259 262 264 262 258 253 248 245 244 244 244 245 246 247
152 157 162 165 168 171 174 176 180 184 187 189 190 189 188 185 183 180 176 172 172 174 178 180 181 182 182 182 184 189 195 198 198 199 199 202 208 213 215 213 213 213 213 214 215 215 216 218 224 231 238 244 249 253 257 259 260 255 244 233 224 221 222 223 224 225 223 217 210
153 157 160 164 167 171 174 178 183 186 187 186 185 182 178 174 169 169 170 172 173 176 179 180 178 175 176 179 184 188 192 193 191 187 184 183 188 194 198 198 197 196 196 193 194 195 199 208 220 231 238 243 246 248 249 248 241 232 221 212 207 206 206 207 204 196 183 172 161
152 154 156 159 164 170 175 180 182 183 182 180 178 174 170 165 162 164 167 170 172 174 177 177 174 171 173 177 179 180 179 177 175 171 168 168 172 176 177 175 172 170 172 173 176 181 187 196 208 218 225 228 229 226 222 219 216 213 209 205 201 195 186 177 167 155 142 127 110
151 153 155 159 164 169 173 177 179 178 175 172 169 166 164 162 162 165 168 169 169 170 169 165 162 163 167 170 170 168 166 164 163 163 162 163 165 166 165 163 162 163 166 170 175 180 184 187 191 195 198 199 197 196 194 193 192 191 188 184 179 170 158 147 135 122 109 94 79
148 151 154 158 161 164 168 171 172 169 165 162 160 159 159 161 163 165 165 162 160 158 152 144 143 146 152 157 159 160 161 161 162 161 160 160 158 157 156 156 156 157 161 166 171 174 176 178 178 179 180 181 180 179 177 173 171 169 166 159 152 144 133 122 110 100 92 86 79
140 144 147 150 150 153 157 160 160 158 156 155 155 156 159 161 161 159 155 151 150 149 147 142 141 143 147 150 153 155 157 157 157 157 156 154 152 150 148 148 148 149 152 157 161 163 165 165 166 169 171 171 170 168 165 159 155 150 144 134 124 115 106 99 91 89 90 94 93
130 134 136 137 136 138 140 143 144 145 146 147 149 152 155 155 154 152 150 148 148 147 146 147 148 148 148 147 149 150 151 150 150 151 150 149 146 143 141 140 139 139 141 145 147 149 150 152 156 161 164 164 161 158 153 148 142 135 125 114 104 99 96 96 96 99 103 104 99
120 124 125 125 125 126 128 130 132 134 137 139 142 143 144 144 143 143 143 142 142 142 144 147 147 144 141 140 141 142 141 141 142 144 143 141 137 134 132 131 128 127 129 133 135 137 139 143 147 152 156 157 155 150 145 139 131 122 115 111 110 110 111 113 115 114 111 106 105
117 117 117 117 118 121 125 126 127 129 131 134 136 136 135 134 133 135 137 138 139 140 142 143 141 137 135 135 135 134 133 134 135 135 134 131 126 122 118 114 111 110 113 118 122 125 127 131 135 140 146 151 150 145 139 132 124 118 115 115 117 120 122 121 118 115 112 111 111
116 116 115 115 116 120 124 124 124 126 128 129 130 130 129 127 127 129 131 133 135 135 136 136 134 132 131 130 129 128 127 126 125 124 123 120 116 110 104 97 94 91 91 97 102 106 108 111 116 123 130 134 131 128 126 125 121 117 115 115 116 119 119 117 114 113 112 110 108
109 111 113 115 116 118 119 119 120 122 123 123 123 123 122 122 121 122 123 125 127 127 127 128 128 126 125 124 122 121 120 119 117 116 115 113 110 106 100 94 91 87 85 90 95 99 102 106 110 115 119 121 121 121 121 121 119 116 114 112 112 111 111 112 111 111 109 106 105
103 106 109 111 112 113 113 114 116 117 117 116 114 115 115 115 115 115 116 119 121 122 122 122 122 122 121 120 118 116 114 113 111 110 109 109 109 106 102 98 97 97 99 103 106 107 108 109 110 112 114 117 118 119 119 118 115 111 109 109 109 109 110 111 110 107 104 102 100
101 104 105 107 109 109 109 110 111 112 111 110 109 110 111 112 112 113 115 118 119 119 118 118 118 118 117 116 115 113 111 109 108 107 108 109 109 107 104 103 104 107 109 110 109 108 107 105 104 104 107 110 113 114 114 112 107 104 105 108 114 115 114 110 106 102 99 96 94
103 105 106 107 108 108 109 109 110 109 109 108 109 109 110 111 113 116 118 121 120 117 115 115 115 115 113 112 111 111 110 110 109 110 111 112 111 109 106 106 107 108 108 107 106 103 100 97 95 96 102 109 113 114 112 109 106 106 110 116 121 119 112 104 98 95 92 90 86
104 107 108 108 108 108 109 110 110 109 109 109 110 111 113 113 115 118 122 124 122 118 116 115 114 113 112 111 110 111 112 114 114 114 114 115 114 112 109 106 105 105 105 105 104 102 99 96 96 100 109 117 120 120 118 116 115 117 120 122 120 114 107 100 96 93 90 84 77
103 107 109 108 108 109 110 111 111 110 109 110 112 114 116 117 117 119 123 125 122 119 117 116 114 113 114 114 114 114 115 117 119 117 115 114 115 114 111 107 104 104 106 109 109 107 104 102 103 106 111 116 121 123 124 124 124 123 121 119 114 109 105 100 98 97 94 88 78
105 108 109 109 109 109 110 110 110 111 112 113 114 116 118 118 118 120 122 124 123 121 119 116 114 114 116 117 117 116 116 117 118 117 115 112 114 115 113 108 105 106 109 113 114 110 104 98 94 93 96 103 113 121 125 127 124 120 116 112 111 110 109 106 104 103 101 97 88
107 109 111 110 111 111 110 110 110 112 114 116 116 117 118 119 120 121 122 122 122 121 120 117 116 116 117 117 116 114 113 114 115 114 113 112 113 114 112 107 104 101 101 101 100 97 92 88 84 82 85 92 103 113 121 125 122 118 114 111 111 113 114 113 110 108 103 99 92
107 110 111 113 114 114 113 112 112 114 117 118 118 119 121 123 123 122 121 120 119 119 118 116 116 116 115 115 114 112 111 110 111 111 111 111 110 108 106 102 99 95 92 88 87 86 85 84 81 80 80 85 93 104 116 126 126 122 119 116 115 115 114 114 113 108 102 96 91
Height
708 709 710 712 713 714 715 716 717 718 719 720 721 723 724 726 729 730 732 733 734 735 734 734 735 737 739 742 744 746 748 749 751 753 755 757 759 760 762 764 765 767 768 769 770 771 772 773 774 775 775 776 777 778 779 780 781 782 783 784 785 785 786 786 787 787 788 788 789
707 709 710 711 712 713 714 715 716 717 719 720 721 722 724 726 728 729 731 733 734 734 734 734 735 737 739 741 744 745 747 749 751 753 754 756 758 760 762 763 764 766 767 768 769 770 771 772 773 774 775 775 776 777 778 779 780 781 782 783 784 784 785 785 786 786 787 787 788
706 708 709 710 711 713 714 714 715 716 718 719 721 722 724 725 727 729 731 732 733 733 733 733 735 737 739 741 743 745 747 749 750 752 754 756 757 759 761 762 764 765 766 768 769 769 770 771 772 773 774 775 776 776 777 778 779 780 781 782 783 783 784 785 785 785 786 786 787
706 707 708 709 710 711 713 713 714 716 717 719 720 722 724 725 727 729 730 731 732 732 732 733 735 737 739 741 743 745 747 748 750 751 753 755 757 758 760 761 763 764 766 767 768 769 770 771 772 773 773 774 775 776 777 778 779 780 780 781 782 782 783 784 784 785 785 785 785
705 706 707 708 709 711 712 713 714 715 717 718 720 721 723 725 726 728 729 730 730 730 731 733 735 737 739 741 743 745 746 748 749 751 753 754 756 758 759 761 762 764 765 766 767 768 769 770 771 772 773 774 774 775 776 777 778 779 780 780 781 781 782 783 783 784 784 784 785
704 705 706 708 709 711 712 713 713 714 716 718 719 721 723 724 726 727 728 728 729 729 731 733 735 737 739 741 743 744 746 748 749 751 752 754 755 757 758 760 761 763 764 765 767 768 769 769 770 771 772 773 774 775 776 777 777 778 779 780 780 781 781 782 782 783 783 783 784
704 705 706 707 709 710 711 712 713 714 716 717 719 720 722 724 725 726 726 727 728 729 731 733 735 737 739 741 743 744 746 747 749 750 752 753 754 756 758 759 761 762 764 764 766 767 768 769 770 771 772 773 774 774 775 776 777 777 778 779 779 780 780 781 781 782 782 782 782
703 704 705 707 709 710 711 712 713 714 715 717 719 720 722 724 725 726 726 726 728 729 731 733 735 737 739 741 742 744 745 747 748 749 751 752 754 755 757 759 760 761 763 764 765 766 767 768 769 770 771 772 773 774 774 775 776 777 777 778 779 779 780 780 780 781 781 781 781
703 704 705 707 708 709 710 711 712 714 715 717 719 720 722 723 724 725 725 726 728 729 731 733 735 737 739 740 742 743 745 746 748 749 750 752 753 755 756 758 759 760 762 763 764 765 766 767 768 769 770 771 772 773 774 774 775 776 776 777 777 778 779 779 780 780 780 780 780
704 704 706 707 708 709 710 711 712 714 715 717 719 720 722 723 724 725 725 727 728 730 732 733 735 737 739 740 742 743 744 746 747 749 750 751 753 754 756 757 759 760 761 762 763 764 765 766 767 768 769 770 771 772 773 774 774 774 775 776 776 777 778 778 778 779 779 779 779
703 704 705 706 708 709 710 711 712 714 715 717 719 720 722 723 724 724 726 727 729 730 732 733 735 737 739 740 741 743 744 745 747 748 749 751 752 754 755 756 758 759 760 761 762 763 764 765 766 768 769 769 770 771 772 773 773 774 774 775 775 776 776 777 777 777 778 778 778
703 704 705 706 707 709 709 711 713 714 715 717 719 721 722 723 724 725 726 728 729 730 732 734 735 737 738 739 741 743 744 745 746 748 749 750 752 753 754 756 757 758 759 760 761 762 764 764 766 767 768 769 769 770 771 771 772 773 773 774 774 775 775 775 776 776 776 776 776
703 704 705 706 707 708 710 711 712 713 715 717 719 720 721 722 724 725 726 728 729 730 732 734 735 737 738 739 741 742 744 745 746 747 749 750 751 753 754 755 756 757 758 759 760 762 763 764 765 766 767 768 768 769 770 770 771 772 772 773 774 774 774 774 774 775 775 775 775
703 704 705 706 707 708 709 711 712 713 714 716 718 720 721 722 724 725 726 728 729 730 732 734 735 737 738 739 741 742 743 744 746 747 748 749 751 752 753 754 755 756 758 759 760 761 762 763 764 765 766 767 767 768 769 769 770 771 771 772 772 773 773 773 773 774 774 774 774
702 704 705 706 707 708 709 710 712 713 714 716 718 719 721 722 724 725 726 728 729 731 732 734 735 737 738 739 741 742 743 744 745 747 748 749 750 751 752 754 755 756 757 758 759 760 761 762 763 764 765 766 766 767 768 769 769 770 770 771 771 771 771 772 772 772 773 773 773
702 703 704 705 706 708 709 710 712 713 714 716 718 720 721 722 724 725 727 728 729 731 733 734 736 737 738 739 741 742 743 744 745 746 748 749 750 751 752 753 754 755 756 758 759 759 760 761 762 763 764 765 766 766 767 768 769 769 770 770 770 770 770 771 771 771 772 772 772
702 703 704 704 706 708 709 710 712 714 715 718 719 720 721 722 724 725 727 728 730 731 733 734 736 737 738 739 740 742 743 744 745 746 747 749 750 751 752 753 754 755 756 757 758 759 760 761 761 762 763 764 765 765 766 767 768 768 769 769 769 769 770 770 770 771 771 771 771
701 702 703 704 706 708 709 710 712 714 717 718 719 720 721 723 724 726 727 729 730 732 733 734 736 737 738 739 741 742 743 744 745 746 748 749 750 751 752 753 754 755 756 757 758 758 759 760 761 762 763 763 764 765 765 766 767 767 768 768 769 769 769 769 770 770 770 770 770
700 702 703 705 706 708 710 711 714 715 717 718 719 720 722 723 724 726 728 729 731 732 734 735 736 737 739 739 741 742 743 744 745 746 748 749 750 751 752 753 754 754 755 756 757 758 759 759 760 761 762 763 763 764 764 765 766 766 767 767 768 768 769 769 769 769 769 769 769
700 702 704 705 707 709 711 713 714 715 717 718 719 720 722 723 725 726 728 729 731 732 734 735 736 737 739 740 741 742 743 744 745 746 747 748 749 750 751 752 753 754 755 756 757 757 758 759 759 760 761 762 762 763 764 764 765 766 766 767 767 768 768 768 768 768 768 768 768
701 703 704 706 708 709 711 713 714 715 717 718 719 721 722 724 725 727 728 730 731 733 734 735 736 738 739 740 741 742 743 744 745 746 747 748 749 750 751 752 753 754 754 755 756 757 757 758 759 760 760 761 762 762 763 764 764 765 766 766 767 767 767 767 767 767 767 767 767
702 704 705 707 708 709 711 712 714 715 717 718 720 721 723 724 726 727 729 730 732 733 734 735 736 738 739 740 741 742 743 744 745 746 747 748 749 749 750 751 752 753 754 754 755 756 757 758 759 759 760 760 761 762 762 763 764 764 765 765 766 766 766 766 766 766 766 767 767
703 704 706 707 709 710 711 713 714 716 717 719 720 722 724 725 727 728 729 731 732 733 734 735 736 738 739 739 741 742 742 743 744 746 747 747 748 749 750 751 752 752 753 754 755 755 756 757 758 759 759 760 760 761 762 763 763 764 764 765 765 765 765 765 766 766 766 766 767
703 705 706 708 709 711 712 714 715 717 719 720 722 723 724 726 727 729 730 731 732 733 734 735 736 738 739 740 740 741 742 743 744 745 746 747 748 749 749 750 751 752 753 754 754 755 756 757 757 758 759 759 760 761 761 762 763 763 764 764 764 765 765 765 765 766 766 766 767
704 705 707 709 710 712 713 715 716 718 719 721 722 724 725 726 728 729 730 731 732 733 734 735 736 738 739 740 740 741 742 743 744 744 745 746 748 749 749 750 751 752 753 754 754 755 756 757 757 758 758 759 759 760 761 762 762 763 763 764 764 764 764 765 765 766 766 766 766
705 707 708 710 711 713 714 716 717 719 720 721 722 724 725 726 728 729 730 731 732 733 734 735 736 738 739 739 740 741 742 743 744 744 745 747 748 749 750 751 752 752 753 754 754 755 755 756 757 757 758 759 759 760 761 761 762 763 763 763 764 764 764 764 765 765 766 766 766
706 708 709 711 712 714 715 717 718 719 720 721 723 724 725 727 728 729 730 731 733 734 735 736 737 737 739 739 740 741 742 743 744 745 746 747 748 749 750 751 752 752 753 754 754 754 755 756 756 757 757 758 759 759 760 761 762 762 762 763 764 764 764 764 765 765 765 766 766
708 709 710 712 714 715 716 717 718 719 720 722 723 724 726 727 728 729 731 732 733 734 735 736 737 738 739 739 740 741 742 743 744 745 746 747 748 749 750 751 751 752 753 753 754 754 755 755 756 756 757 758 758 759 760 760 761 762 762 763 764 764 764 764 765 765 765 766 766
709 710 712 713 714 716 717 718 719 720 721 722 724 725 726 727 729 730 731 732 733 734 735 736 737 738 739 739 740 741 742 743 744 745 746 748 749 749 750 751 752 752 753 754 754 754 755 755 756 757 757 758 758 759 760 760 761 762 762 763 764 764 764 764 765 765 766 766 766
711 712 713 714 715 717 718 719 719 720 721 723 724 725 726 728 729 730 731 732 733 734 735 736 737 738 739 740 741 742 743 744 745 746 747 748 749 750 750 751 752 753 753 754 754 755 755 756 757 757 758 759 759 759 760 761 762 762 763 763 764 764 764 765 765 765 766 766 766
712 713 714 715 716 717 719 720 720 721 722 723 724 726 727 728 729 730 731 732 733 734 735 736 737 738 739 740 742 743 744 744 746 747 747 748 749 750 751 751 752 753 754 754 755 756 756 757 758 758 759 759 760 760 761 761 762 762 763 764 764 764 765 765 765 766 766 766 766
713 714 714 715 717 719 720 721 722 722 723 724 725 726 728 729 730 731 732 733 734 735 736 737 738 739 740 741 742 743 744 745 746 747 748 749 749 750 751 752 753 754 755 755 756 756 757 758 759 759 760 760 760 761 761 762 762 763 763 764 764 765 765 765 766 766 766 766 766
714 714 715 717 719 720 722 722 723 723 724 725 726 727 729 730 731 732 733 734 735 736 737 738 739 740 741 742 743 744 745 746 747 748 749 749 750 751 752 753 754 755 756 756 757 757 758 759 759 760 760 760 761 761 762 762 763 763 764 764 765 765 765 765 766 766 766 766 767
715 716 717 719 721 722 723 724 724 724 725 726 728 729 729 731 732 733 734 735 736 737 738 739 740 741 742 743 744 744 746 747 748 749 749 750 751 752 753 754 755 756 757 757 758 758 759 759 760 760 760 761 761 762 762 762 763 764 764 764 765 765 766 766 766 766 766 767 767
717 718 720 721 723 724 724 725 725 726 726 728 729 730 731 732 733 734 735 736 737 738 739 740 741 742 743 744 744 745 746 747 748 749 750 751 752 753 754 755 756 757 758 758 759 759 760 760 760 761 761 761 762 762 762 763 763 764 764 765 765 765 766 766 766 766 767 767 767
720 721 722 723 724 725 725 726 727 727 728 729 730 731 732 733 734 735 736 737 738 739 740 741 742 743 744 744 745 746 747 748 749 750 752 753 753 754 755 756 758 758 759 759 759 760 760 760 761 761 761 761 762 762 763 763 763 764 764 765 765 766 766 766 766 767 767 767 767
722 723 724 724 725 726 727 727 728 729 730 731 732 733 734 734 736 737 738 738 739 740 741 742 743 744 744 745 747 748 749 750 751 752 753 754 754 755 756 757 758 759 759 760 760 760 761 761 761 761 761 762 762 762 763 763 764 764 764 765 765 766 766 766 766 767 767 767 767
724 725 725 726 727 727 728 729 729 730 731 732 733 734 735 736 737 738 739 739 740 741 742 743 744 745 746 747 748 749 750 751 752 753 754 755 755 756 757 758 759 759 760 760 760 761 761 761 761 762 762 762 762 763 763 763 764 764 764 765 765 766 766 766 767 767 767 768 768
727 727 727 728 728 729 729 730 731 732 733 734 734 735 736 737 738 739 740 741 741 742 743 744 745 746 747 748 749 750 751 752 753 754 755 756 757 757 758 758 759 760 760 761 761 761 761 762 762 762 762 763 763 763 763 764 764 764 765 765 766 766 767 767 767 767 767 768 768
729 729 729 729 730 730 731 732 733 734 734 735 736 737 738 739 739 740 741 742 743 743 744 745 746 748 749 749 750 751 752 754 754 755 756 757 757 758 758 759 759 760 761 761 761 762 762 762 762 763 763 763 763 764 764 764 764 764 765 765 766 766 767 767 767 768 768 768 768
730 730 730 731 731 732 732 733 734 735 736 736 737 738 739 740 741 742 742 743 744 744 745 746 748 749 749 750 751 752 753 754 756 756 757 758 758 759 759 760 760 761 762 762 762 762 763 763 763 763 764 764 764 764 764 764 764 764 765 766 766 766 767 767 767 768 768 767 767